Total_Precipitation_Accumulation
0.12 0.07 0.11 0.18 0.19 0.15 0.34 0.51 0.96 0.40 0.24 0.33 0.33 0.45 0.62 0.39 0.45 0.31 0.67 0.81 0.61 0.64 0.59 0.58 0.65 0.68 0.76 0.66 0.65 0.73 0.72 0.71 0.62 0.78 1.22 1.43 1.76 1.78 1.54 1.27 1.19 1.25 1.33 1.49
0.54 0.07 0.07 0.16 0.11 0.10 0.07 0.08 0.17 0.22 0.22 0.05 0.05 0.11 0.09 0.10 0.11 0.21 0.37 0.28 0.29 0.22 0.23 0.27 0.33 0.39 0.52 0.61 0.54 0.51 0.53 0.50 0.70 0.85 0.75 0.82 0.81 0.76 0.78 0.91 0.95 0.86 0.75 0.78
1.17 0.21 0.56 0.94 0.13 0.05 0.16 0.25 0.21 0.25 0.20 0.03 0.07 0.10 0.15 0.13 0.11 0.12 0.12 0.07 0.15 0.21 0.17 0.27 0.29 0.31 0.44 0.57 0.57 0.43 0.39 0.40 0.47 0.48 0.49 0.43 0.39 0.43 0.50 0.56 0.61 0.75 0.90 0.77
1.86 0.99 2.23 0.79 0.05 0.04 0.20 0.14 0.07 0.12 0.07 0.05 0.06 0.17 0.14 0.07 0.06 0.08 0.07 0.07 0.06 0.09 0.06 0.13 0.26 0.44 0.52 0.55 0.60 0.59 0.42 0.35 0.28 0.30 0.37 0.39 0.54 0.66 0.68 0.69 0.62 0.65 0.82 1.25
2.44 1.72 0.83 0.15 0.09 0.13 0.19 0.34 0.22 0.18 0.13 0.06 0.05 0.20 0.31 0.11 0.09 0.10 0.07 0.05 0.02 0.02 0.01 0.02 0.10 0.38 0.76 0.90 0.72 0.72 0.60 0.54 0.48 0.46 0.53 0.69 0.84 0.94 0.85 0.83 0.95 0.96 0.99 1.09
3.04 2.51 1.12 0.26 0.16 0.07 0.20 0.79 0.75 0.41 0.37 0.33 0.22 0.40 0.44 0.16 0.12 0.07 0.03 0.01 0.01 0.01 0.01 0.03 0.09 0.27 0.48 0.88 1.04 0.86 0.87 0.82 0.88 0.84 0.86 0.97 0.95 0.85 0.84 0.95 1.03 1.17 1.29 1.05
2.99 2.88 1.23 0.25 0.08 0.12 0.71 1.35 0.89 0.87 1.08 0.92 0.95 1.07 0.63 0.37 0.15 0.04 0.00 0.00 0.01 0.02 0.02 0.02 0.08 0.24 0.57 0.84 1.30 1.38 1.19 1.30 1.29 1.24 1.22 1.10 1.02 0.96 0.99 1.05 1.09 1.05 1.06 1.14
2.67 2.80 1.45 0.28 0.45 0.96 1.07 0.61 0.78 1.30 1.55 1.32 1.12 0.80 0.45 0.14 0.06 0.02 0.00 0.01 0.01 0.01 0.03 0.04 0.06 0.10 0.30 0.74 1.50 2.08 1.90 1.58 1.53 1.39 1.13 1.04 0.96 0.94 0.93 0.93 1.05 1.11 1.08 1.13
1.45 1.13 0.53 0.38 0.65 0.84 0.73 0.78 0.90 0.81 0.82 0.64 0.54 0.27 0.11 0.07 0.02 0.00 0.00 0.00 0.01 0.02 0.05 0.09 0.11 0.12 0.20 0.34 0.66 1.69 2.51 2.46 1.96 1.46 1.35 1.34 1.30 1.26 1.19 1.15 1.17 1.31 1.36 1.38
1.41 0.75 0.38 0.54 0.42 0.55 0.81 0.78 0.55 0.56 0.55 0.46 0.31 0.24 0.24 0.13 0.12 0.06 0.03 0.03 0.04 0.06 0.06 0.04 0.05 0.10 0.23 0.38 0.60 1.03 1.63 2.22 2.55 2.56 1.89 1.76 1.97 1.92 2.05 2.10 1.88 1.86 1.98 2.00
1.65 1.59 0.99 0.64 0.59 0.60 0.64 0.62 0.63 0.40 0.34 0.42 0.52 0.45 0.33 0.28 0.15 0.11 0.16 0.20 0.17 0.19 0.19 0.15 0.15 0.18 0.25 0.43 0.56 0.69 1.02 1.54 1.90 2.72 2.75 1.97 1.88 2.02 1.92 2.24 2.31 2.12 1.99 1.92
1.41 1.38 1.69 1.24 1.37 1.08 0.92 0.51 0.32 0.20 0.24 0.19 0.13 0.16 0.24 0.32 0.40 0.36 0.32 0.36 0.34 0.33 0.37 0.44 0.47 0.44 0.44 0.46 0.52 0.66 1.00 1.51 1.84 2.20 2.93 2.92 2.36 2.68 2.97 2.95 2.86 2.81 2.71 2.37
0.58 0.68 1.06 1.36 0.96 0.51 0.52 0.54 0.31 0.13 0.11 0.07 0.05 0.08 0.18 0.36 0.45 0.47 0.44 0.40 0.40 0.46 0.47 0.43 0.42 0.53 0.69 0.73 0.80 0.95 1.17 1.47 1.93 2.40 2.82 3.08 3.13 2.82 2.93 3.13 2.77 2.41 2.32 2.14
0.24 0.45 0.61 0.46 0.46 0.32 0.32 0.36 0.26 0.24 0.18 0.14 0.15 0.16 0.21 0.39 0.90 1.29 1.24 0.92 0.71 0.62 0.68 0.79 0.89 1.16 1.33 1.37 1.37 1.45 1.62 1.99 1.99 2.14 2.61 3.01 3.20 3.13 2.83 2.40 2.12 2.32 2.29 2.15
0.26 0.31 0.42 0.32 0.25 0.25 0.25 0.31 0.26 0.20 0.20 0.21 0.15 0.19 0.36 0.59 0.75 0.99 1.49 1.64 1.56 1.51 1.56 1.53 1.64 2.25 2.35 2.19 2.17 2.19 2.03 2.11 2.16 2.32 2.36 2.46 2.54 2.47 2.26 2.08 1.96 1.96 1.93 1.81
0.18 0.16 0.15 0.18 0.23 0.23 0.19 0.25 0.41 0.30 0.13 0.09 0.18 0.31 0.34 0.52 0.64 0.76 1.03 1.26 1.38 1.78 2.16 2.28 2.37 2.45 2.15 1.96 1.72 1.73 1.75 1.64 1.46 1.46 1.65 1.79 1.76 1.76 1.86 1.84 1.81 1.75 1.70 1.81
0.39 0.19 0.13 0.18 0.19 0.21 0.23 0.26 0.30 0.28 0.25 0.25 0.28 0.33 0.38 0.48 0.70 1.08 1.40 1.51 1.70 1.84 1.81 1.67 1.72 1.52 1.27 1.24 1.18 1.19 1.24 1.18 1.08 1.03 1.04 1.07 1.19 1.30 1.35 1.34 1.37 1.36 1.46 1.52
0.23 0.17 0.30 0.53 0.47 0.28 0.19 0.18 0.25 0.24 0.27 0.34 0.53 0.74 0.84 0.88 1.17 1.63 1.94 1.76 1.31 1.30 1.43 1.38 1.15 0.98 0.92 0.96 0.90 0.83 0.78 0.75 0.78 0.82 0.83 0.83 0.87 0.90 0.88 0.88 0.94 0.98 1.09 1.09
0.32 0.46 0.39 0.41 0.46 0.39 0.36 0.39 0.41 0.54 0.69 0.69 0.94 1.41 1.62 1.63 1.47 1.31 1.21 1.13 1.22 1.06 1.26 0.98 0.87 0.76 0.69 0.73 0.59 0.56 0.57 0.58 0.57 0.56 0.60 0.62 0.62 0.71 0.78 0.75 0.74 0.80 0.82 0.84
0.27 0.29 0.36 0.46 0.49 0.61 0.75 0.79 0.80 0.98 1.22 1.23 1.24 1.23 1.16 1.23 1.02 0.98 0.92 0.91 0.92 0.81 0.70 0.68 0.64 0.60 0.54 0.49 0.38 0.38 0.41 0.43 0.41 0.46 0.54 0.57 0.67 0.70 0.64 0.59 0.62 0.69 0.74 0.78
0.44 0.28 0.34 0.54 0.74 0.94 1.09 1.10 1.02 1.10 1.29 1.07 0.92 1.12 1.20 1.39 1.25 1.07 0.80 0.66 0.77 0.53 0.45 0.40 0.30 0.31 0.31 0.35 0.35 0.35 0.43 0.45 0.48 0.54 0.53 0.54 0.53 0.52 0.55 0.54 0.58 0.60 0.65 0.67
0.83 0.86 0.83 0.86 0.88 1.14 1.24 1.19 0.98 1.03 1.09 1.18 1.20 1.10 1.00 1.17 1.00 0.83 0.65 0.55 0.50 0.34 0.30 0.30 0.25 0.25 0.25 0.31 0.35 0.41 0.44 0.45 0.42 0.41 0.44 0.44 0.47 0.49 0.49 0.49 0.52 0.53 0.56 0.58
1.43 1.40 1.41 1.24 1.07 1.19 1.23 1.12 1.16 1.04 1.13 1.07 0.94 0.86 0.70 0.74 0.63 0.51 0.49 0.35 0.30 0.31 0.31 0.30 0.25 0.25 0.26 0.34 0.41 0.44 0.45 0.41 0.38 0.40 0.41 0.41 0.44 0.46 0.47 0.46 0.47 0.52 0.52 0.51
1.31 1.21 1.37 1.25 0.94 0.76 0.96 1.08 0.87 0.82 0.77 0.85 0.78 0.71 0.61 0.58 0.54 0.41 0.40 0.36 0.33 0.31 0.33 0.32 0.23 0.20 0.26 0.36 0.36 0.35 0.38 0.36 0.35 0.38 0.37 0.37 0.39 0.38 0.39 0.39 0.38 0.37 0.42 0.42
1.06 1.08 1.04 0.80 0.67 0.71 0.64 0.62 0.60 0.70 0.69 0.78 0.75 0.63 0.47 0.42 0.53 0.44 0.36 0.33 0.28 0.25 0.28 0.25 0.17 0.19 0.28 0.32 0.33 0.32 0.34 0.32 0.31 0.37 0.39 0.36 0.34 0.32 0.32 0.32 0.32 0.32 0.33 0.34
0.93 0.92 0.78 0.60 0.59 0.54 0.49 0.50 0.57 0.68 0.62 0.67 0.63 0.52 0.49 0.41 0.39 0.37 0.31 0.27 0.20 0.20 0.27 0.32 0.25 0.25 0.28 0.31 0.32 0.31 0.31 0.30 0.29 0.31 0.32 0.32 0.32 0.31 0.31 0.31 0.31 0.31 0.32 0.31
0.69 0.60 0.47 0.47 0.52 0.51 0.51 0.53 0.51 0.55 0.52 0.52 0.57 0.46 0.46 0.44 0.40 0.41 0.39 0.34 0.31 0.32 0.33 0.34 0.31 0.28 0.29 0.32 0.36 0.33 0.31 0.31 0.28 0.29 0.31 0.33 0.33 0.35 0.35 0.35 0.36 0.37 0.36 0.37